Hourly Data Report for May 03, 2006

TORONTO CITY
ONTARIO

43°40'00.000" N
79°24'00.000" W
112.50 m
6158355
71508
XTO

Download Data

Hourly Data (May 2006)
Hourly Data Report for May 3, 2006
TIME
LST
Temp Definition
°C
Dew Point Definition
°C
Rel Hum Definition
%
Precip. Amount Definition
mm

Wind Dir Definition
10's deg

Wind Spd Definition
km/h
Visibility Definition
km
Stn Press Definition
kPa
Hmdx Definition


Wind Chill Definition


Weather Definition


00:00 12.6 5.0 60   LegendMM LegendMM   99.97     LegendNANA
01:00 12.2 5.2 62   LegendMM LegendMM   99.92     LegendNANA
02:00 11.4 5.2 66   LegendMM LegendMM   99.89     LegendNANA
03:00 10.6 5.5 71   LegendMM LegendMM   99.89     LegendNANA
04:00 10.2 5.7 74   LegendMM LegendMM   99.95     LegendNANA
05:00 10.0 5.7 75   LegendMM LegendMM   99.94     LegendNANA
06:00 10.5 6.0 74   LegendMM LegendMM   100.01     LegendNANA
07:00 12.2 6.1 66   LegendMM LegendMM   100.07     LegendNANA
08:00 13.7 6.6 62   LegendMM LegendMM   100.09     LegendNANA
09:00 15.6 6.2 54   LegendMM LegendMM   100.10     LegendNANA
10:00 17.3 6.0 47   LegendMM LegendMM   100.08     LegendNANA
11:00 18.0 8.2 53   LegendMM LegendMM   100.04     LegendNANA
12:00 18.6 8.0 50   LegendMM LegendMM   99.98     LegendNANA
13:00 18.9 8.4 50   LegendMM LegendMM   99.91     LegendNANA
14:00 20.5 7.4 43   LegendMM LegendMM   99.88     LegendNANA
15:00 20.5 7.6 43   LegendMM LegendMM   99.85     LegendNANA
16:00 20.8 6.9 40   LegendMM LegendMM   99.84     LegendNANA
17:00 21.1 4.2 33   LegendMM LegendMM   99.82     LegendNANA
18:00 19.8 4.6 37   LegendMM LegendMM   99.80     LegendNANA
19:00 19.1 6.5 44   LegendMM LegendMM   99.80     LegendNANA
20:00 17.3 7.5 52   LegendMM LegendMM   99.82     LegendNANA
21:00 15.4 8.0 61   LegendMM LegendMM   99.83     LegendNANA
22:00 15.3 8.2 63   LegendMM LegendMM   99.82     LegendNANA
23:00 14.3 8.6 69   LegendMM LegendMM   99.79     LegendNANA

Notes on Data Quality.

Legend

  • E = Estimated
  • M = Missing
  • NA = Not Available*
  • [empty] = Indicates an unobserved value
Date modified: